Location: Dackenheim
(49.5215°N, 8.1854°E)
Time: 00:44:08
(UTC+00:00)

SL-24 R/B - Pass Details

Date: 19 May 2025
Orbit: 623 x 1072 km, 98.1° (Epoch: 15 June)

Event Time Altitude Azimuth Distance (km) Brightness Sun altitude
Rises 21:03:28 0° 17° (NNE) 2,920 8.1 -13.9°
Reaches altitude 10° 21:05:41 10° 21° (NNE) 2,009 7.2 -14.1°
Maximum altitude 21:09:56 59° 102° (ESE) 741 4.2 -14.4°
Enters shadow 21:12:51 20° 176° (S) 1,489 5.5 -14.7°
